Preview of NWS' New Version of Forecast
This preview is not operational and should not be used for support decisions.

Regional Weather Roundup (RWR)

Issued by National Weather Service (NWS)

                            
000
ASUS44 KMEG 221700
RWRTN 
TENNESSEE HOURLY STATE WEATHER ROUNDUP
NATIONAL WEATHER SERVICE MEMPHIS TN
1200 PM CDT MON APR 22 2019

TNZ002-004-019-021-049-052-054-088>092-221800-
WEST TENNESSEE
  
CITY           SKY/WX    TMP DP  RH WIND       PRES   REMARKS
MEMPHIS INTL   FAIR      75  53  46 SW10      30.18S                  
NWS MEMPHIS      N/A     75 N/A N/A MISG        N/A                   
JACKSON        FAIR      74  54  49 SW9       30.19F                  
DYERSBURG      FAIR      76  53  44 VRB7      30.17F                  
$$

TNZ008-025-027-028-033-062-065-066-221800-
NORTH MIDDLE TENNESSEE
  
CITY           SKY/WX    TMP DP  RH WIND       PRES   REMARKS
NASHVILLE      FAIR      78  45  30 S5        30.18F                  
CLARKSVILLE    FAIR      77  45  32 W10       30.17S                  
SMYRNA         FAIR      76  51  41 S6        30.19F                  
CROSSVILLE     FAIR      71  35  26 VRB6      30.23F                  
$$

TNZ061-075-076-078-094-096-097-221800-
SOUTH MIDDLE TENNESSEE
  
CITY           SKY/WX    TMP DP  RH WIND       PRES   REMARKS
$$

TNZ017-018-042-046-047-221800-
NORTHEAST TENNESSEE
  
CITY           SKY/WX    TMP DP  RH WIND       PRES   REMARKS
TRI CITIES     FAIR      66  43  43 CALM      30.24F                  
$$

TNZ012-013-036-069-073-074-221800-
CENTRAL EAST TENNESSEE
  
CITY           SKY/WX    TMP DP  RH WIND       PRES   REMARKS
KNOXVILLE      FAIR      71  42  35 N8        30.21F                  
OAK RIDGE      FAIR      72  42  34 VRB3      30.23F                  
$$

TNZ083-085-099-221800-
SOUTHEAST TENNESSEE
  
CITY           SKY/WX    TMP DP  RH WIND       PRES   REMARKS
CHATTANOOGA    FAIR      74  43  32 NE5       30.22F                  
$$

SKY/WX REPORTED AS FAIR MEANS FEW OR NO CLOUDS BELOW
12 THOUSAND FEET.